OK,89,24,619,89,2014-10-01T01:40:00,0,28071946,193159
OK,89,24,619,89,2014-10-01T01:45:00,0,28072389,193159
OK,89,24,619,89,2014-10-01T01:50:00,0,28072838,193159
OK,89,24,619,89,2014-10-01T01:55:00,0,28073285,193159
OK,89,24,619,89,2014-10-01T02:00:00,0,28073733,193159
OK,89,24,619,89,2014-10-01T02:05:00,0,28074051,193159
OK,89,24,619,89,2014-10-01T02:10:00,0,28074500,193159
OK,89,24,619,89,2014-10-01T02:15:00,0,28074940,193159
OK,89,24,619,89,2014-10-01T02:20:00,0,28075389,193159
OK,89,24,619,89,2014-10-01T02:25:00,0,28075838,193159
OK,89,24,619,89,2014-10-01T02:30:00,0,28076221,193159
OK,89,24,619,89,2014-10-01T02:35:00,0,28076670,193159
OK,89,24,619,89,2014-10-01T02:40:00,0,28077119,193159
OK,89,24,619,89,2014-10-01T02:45:00,0,28077568,193159
OK,89,24,619,89,2014-10-01T02:50:00,0,28077971,193159
OK,89,24,619,89,2014-10-01T02:55:00,0,28078420,193159
OK,89,24,619,89,2014-10-01T03:00:00,0,28078865,193159
OK,89,24,619,89,2014-10-01T03:05:00,0,28079313,193159
OK,89,24,619,89,2014-10-01T03:10:00,0,28079756,193159
OK,89,24,619,89,2014-10-01T03:15:00,0,28080205,193159
OK,89,24,619,89,2014-10-01T03:20:00,0,28080539,193159
OK,89,24,619,89,2014-10-01T03:25:00,0,28080988,193159
OK,89,24,619,89,2014-10-01T03:30:00,0,28081437,193159
OK,89,24,619,89,2014-10-01T03:35:00,0,28081884,193159
OK,89,24,619,89,2014-10-01T03:40:00,0,28082333,193159
OK,89,24,619,89,2014-10-01T03:45:00,0,28082766,193159
OK,89,24,619,89,2014-10-01T03:50:00,0,28083198,193159
OK,89,24,619,89,2014-10-01T03:55:00,0,28083647,193159
OK,89,24,619,89,2014-10-01T04:00:00,0,28084096,193159
OK,89,24,619,89,2014-10-01T04:05:00,0,28084537,193159
OK,106,20,619,106,2014-10-01T04:10:00,2,28084962,193159
OK,112,19,619,112,2014-10-01T04:15:00,1,28085411,193159
OK,112,19,619,112,2014-10-01T04:20:00,0,28085856,193159
OK,112,19,619,112,2014-10-01T04:25:00,0,28086305,193159
OK,112,19,619,112,2014-10-01T04:30:00,0,28086747,193159
OK,112,19,619,112,2014-10-01T04:35:00,0,28087196,193159
OK,112,19,619,112,2014-10-01T04:40:00,0,28087641,193159
OK,80,27,619,80,2014-10-01T04:45:00,1,28088090,193159
OK,80,27,619,80,2014-10-01T04:50:00,1,28088514,193159
OK,80,27,619,80,2014-10-01T04:55:00,0,28088963,193159
OK,80,27,619,80,2014-10-01T05:00:00,0,28089393,193159
OK,114,19,619,114,2014-10-01T05:05:00,1,28089842,193159
OK,114,19,619,114,2014-10-01T05:10:00,1,28090291,193159
OK,114,19,619,114,2014-10-01T05:15:00,0,28090635,193159
OK,114,19,619,114,2014-10-01T05:20:00,0,28091084,193159
OK,114,19,619,114,2014-10-01T05:25:00,0,28091533,193159
OK,104,21,619,104,2014-10-01T05:30:00,2,28091950,193159
OK,104,21,619,104,2014-10-01T05:35:00,2,28092399,193159
OK,129,17,619,129,2014-10-01T05:40:00,5,28092843,193159
OK,129,17,619,129,2014-10-01T05:45:00,0,28093284,193159
OK,75,29,619,75,2014-10-01T05:50:00,1,28093715,193159
OK,75,29,619,75,2014-10-01T05:55:00,1,28094164,193159
OK,75,29,619,75,2014-10-01T06:00:00,0,28094575,193159
OK,75,29,619,75,2014-10-01T06:05:00,0,28095020,193159
OK,75,29,619,75,2014-10-01T06:10:00,0,28095467,193159
OK,69,31,619,69,2014-10-01T06:15:00,1,28095916,193159
OK,69,31,619,69,2014-10-01T06:20:00,3,28096329,193159
OK,144,15,619,144,2014-10-01T06:25:00,2,28096778,193159
OK,144,15,619,144,2014-10-01T06:30:00,2,28097212,193159
OK,144,15,619,144,2014-10-01T06:35:00,0,28097661,193159
OK,144,15,619,144,2014-10-01T06:40:00,0,28098110,193159
OK,138,15,619,138,2014-10-01T06:45:00,1,28098547,193159
OK,138,15,619,138,2014-10-01T06:50:00,0,28098991,193159
OK,138,15,619,138,2014-10-01T06:55:00,0,28099439,193159
OK,110,19,619,110,2014-10-01T07:00:00,1,28099782,193159
OK,110,19,619,110,2014-10-01T07:05:00,1,28100231,193159
OK,110,19,619,110,2014-10-01T07:10:00,0,28100538,193159
OK,110,19,619,110,2014-10-01T07:15:00,0,28100987,193159
OK,110,19,619,110,2014-10-01T07:20:00,0,28101358,193159
OK,52,42,619,52,2014-10-01T07:25:00,2,28101807,193159
OK,52,42,619,52,2014-10-01T07:30:00,2,28102243,193159
OK,64,34,619,64,2014-10-01T07:35:00,0,28102692,193159
OK,64,34,619,64,2014-10-01T07:40:00,0,28103120,193159
OK,129,17,619,129,2014-10-01T07:45:00,1,28103566,193159
OK,129,17,619,129,2014-10-01T07:50:00,0,28104011,193159
OK,129,17,619,129,2014-10-01T07:55:00,0,28104456,193159
OK,129,17,619,129,2014-10-01T08:00:00,0,28104897,193159
OK,129,17,619,129,2014-10-01T08:05:00,0,28105342,193159
OK,118,18,619,118,2014-10-01T08:10:00,2,28105782,193159
OK,118,18,619,118,2014-10-01T08:15:00,2,28106231,193159
OK,118,18,619,118,2014-10-01T08:20:00,0,28106668,193159
OK,118,18,619,118,2014-10-01T08:25:00,0,28107074,193159
OK,138,15,619,138,2014-10-01T08:30:00,1,28107506,193159
OK,138,15,619,138,2014-10-01T08:35:00,1,28107955,193159
OK,138,15,619,138,2014-10-01T08:40:00,0,28108394,193159
OK,138,15,619,138,2014-10-01T08:45:00,0,28108843,193159
OK,138,15,619,138,2014-10-01T08:50:00,0,28109271,193159
OK,138,15,619,138,2014-10-01T08:55:00,0,28109720,193159
OK,138,15,619,138,2014-10-01T09:00:00,0,28110063,193159
OK,86,25,619,86,2014-10-01T09:05:00,1,28110512,193159
OK,86,25,619,86,2014-10-01T09:10:00,1,28110935,193159
OK,102,21,619,102,2014-10-01T09:15:00,1,28111384,193159
OK,102,21,619,102,2014-10-01T09:20:00,1,28111813,193159
OK,85,25,619,85,2014-10-01T09:25:00,1,28112262,193159
OK,85,25,619,85,2014-10-01T09:30:00,1,28112603,193159
OK,85,25,619,85,2014-10-01T09:35:00,0,28113052,193159
OK,85,25,619,85,2014-10-01T09:40:00,0,28113476,193159
OK,85,25,619,85,2014-10-01T09:45:00,0,28113925,193159
OK,76,28,619,76,2014-10-01T09:50:00,1,28114357,193159
OK,76,28,619,76,2014-10-01T09:55:00,1,28114806,193159
OK,62,35,619,62,2014-10-01T10:00:00,1,28115160,193159
OK,62,35,619,62,2014-10-01T10:05:00,1,28115609,193159
OK,62,35,619,62,2014-10-01T10:10:00,0,28116021,193159
OK,60,36,619,60,2014-10-01T10:15:00,1,28116470,193159
OK,60,36,619,60,2014-10-01T10:20:00,0,28116878,193159
OK,60,36,619,60,2014-10-01T10:25:00,0,28117327,193159
OK,60,36,619,60,2014-10-01T10:30:00,0,28117752,193159
OK,60,36,619,60,2014-10-01T10:35:00,0,28118201,193159
OK,60,36,619,60,2014-10-01T10:40:00,0,28118646,193159
OK,60,36,619,60,2014-10-01T10:45:00,0,28119093,193159
OK,60,36,619,60,2014-10-01T10:50:00,0,28119537,193159
OK,60,36,619,60,2014-10-01T10:55:00,0,28119985,193159
OK,55,39,619,55,2014-10-01T11:00:00,1,28120433,193159
OK,56,39,619,56,2014-10-01T11:05:00,2,28120882,193159
OK,57,38,619,57,2014-10-01T11:10:00,1,28121265,193159
OK,57,38,619,57,2014-10-01T11:15:00,0,28121714,193159
OK,57,38,619,57,2014-10-01T11:20:00,0,28122152,193159
OK,57,38,619,57,2014-10-01T11:25:00,0,28122601,193159
OK,57,38,619,57,2014-10-01T11:30:00,0,28123042,193159
OK,57,38,619,57,2014-10-01T11:35:00,0,28123491,193159
OK,57,38,619,57,2014-10-01T11:40:00,0,28123923,193159
OK,57,38,619,57,2014-10-01T11:45:00,0,28124372,193159
OK,57,38,619,57,2014-10-01T11:50:00,0,28124774,193159
OK,129,17,619,129,2014-10-01T11:55:00,1,28125223,193159
OK,129,17,619,129,2014-10-01T12:00:00,1,28125652,193159
OK,139,15,619,139,2014-10-01T12:05:00,1,28126101,193159
OK,139,15,619,139,2014-10-01T12:10:00,1,28126453,193159
OK,139,15,619,139,2014-10-01T12:15:00,0,28126902,193159
OK,139,15,619,139,2014-10-01T12:20:00,0,28127351,193159
OK,139,15,619,139,2014-10-01T12:25:00,0,28127800,193159
OK,139,15,619,139,2014-10-01T12:30:00,0,28128228,193159
OK,139,15,619,139,2014-10-01T12:35:00,0,28128677,193159
OK,139,15,619,139,2014-10-01T12:40:00,0,28129112,193159
OK,139,15,619,139,2014-10-01T12:45:00,0,28129561,193159
OK,139,15,619,139,2014-10-01T12:50:00,0,28129995,193159
OK,139,15,619,139,2014-10-01T12:55:00,0,28130444,193159
OK,139,15,619,139,2014-10-01T13:00:00,0,28130872,193159
OK,139,15,619,139,2014-10-01T13:05:00,0,28131321,193159
OK,139,15,619,139,2014-10-01T13:10:00,0,28131758,193159
OK,131,16,619,131,2014-10-01T13:15:00,1,28132207,193159
OK,131,16,619,131,2014-10-01T13:20:00,3,28132645,193159
OK,126,17,619,126,2014-10-01T13:25:00,2,28133092,193159
OK,67,32,619,67,2014-10-01T13:30:00,1,28133530,193159
OK,67,32,619,67,2014-10-01T13:35:00,1,28133979,193159
OK,81,27,619,81,2014-10-01T13:40:00,1,28134418,193159
OK,79,27,619,79,2014-10-01T13:45:00,2,28134867,193159
OK,100,21,619,100,2014-10-01T13:50:00,2,28135286,193159
OK,123,17,619,123,2014-10-01T13:55:00,1,28135735,193159
OK,123,17,619,123,2014-10-01T14:00:00,0,28136172,193159
OK,123,17,619,123,2014-10-01T14:05:00,0,28136621,193159
OK,105,20,619,105,2014-10-01T14:10:00,1,28137061,193159
OK,105,20,619,105,2014-10-01T14:15:00,0,28137510,193159
OK,111,19,619,111,2014-10-01T14:20:00,2,28137944,193159
OK,111,19,619,111,2014-10-01T14:25:00,0,28138393,193159
OK,111,19,619,111,2014-10-01T14:30:00,0,28138821,193159
OK,111,19,619,111,2014-10-01T14:35:00,0,28139270,193159
OK,55,39,619,55,2014-10-01T14:40:00,1,28139681,193159
OK,55,39,619,55,2014-10-01T14:45:00,1,28140130,193159
OK,55,39,619,55,2014-10-01T14:50:00,0,28140572,193159
OK,55,39,619,55,2014-10-01T14:55:00,0,28141021,193159
OK,55,39,619,55,2014-10-01T15:00:00,0,28141447,193159
OK,55,39,619,55,2014-10-01T15:05:00,0,28141896,193159
OK,55,39,619,55,2014-10-01T15:10:00,0,28142324,193159
OK,55,39,619,55,2014-10-01T15:15:00,0,28142773,193159
OK,55,39,619,55,2014-10-01T15:20:00,0,28143200,193159
OK,55,39,619,55,2014-10-01T15:25:00,0,28143649,193159
OK,55,39,619,55,2014-10-01T15:30:00,0,28144097,193159
OK,55,39,619,55,2014-10-01T15:35:00,0,28144546,193159
OK,55,39,619,55,2014-10-01T15:40:00,0,28144967,193159
OK,103,21,619,103,2014-10-01T15:45:00,1,28145381,193159
OK,56,39,619,56,2014-10-01T15:50:00,3,28145830,193159
OK,48,45,619,48,2014-10-01T15:55:00,2,28146279,193159
OK,48,45,619,48,2014-10-01T16:00:00,0,28146728,193159
OK,48,45,619,48,2014-10-01T16:05:00,0,28147136,193159
OK,48,45,619,48,2014-10-01T16:10:00,0,28147580,193159
OK,48,45,619,48,2014-10-01T16:15:00,0,28148029,193159
OK,48,45,619,48,2014-10-01T16:20:00,0,28148430,193159
OK,159,13,619,159,2014-10-01T16:25:00,1,28148879,193159
OK,159,13,619,159,2014-10-01T16:30:00,1,28149318,193159
OK,159,13,619,159,2014-10-01T16:35:00,0,28149767,193159
OK,68,32,619,68,2014-10-01T16:40:00,1,28150193,193159
OK,68,32,619,68,2014-10-01T16:45:00,1,28150642,193159
OK,68,32,619,68,2014-10-01T16:50:00,0,28151060,193159
OK,96,22,619,96,2014-10-01T16:55:00,1,28151509,193159
OK,96,22,619,96,2014-10-01T17:05:00,0,28151958,193159
OK,96,22,619,96,2014-10-01T17:10:00,0,28152407,193159
OK,156,14,619,156,2014-10-01T17:15:00,1,28152853,193159
OK,156,14,619,156,2014-10-01T17:20:00,1,28153300,193159
OK,156,14,619,156,2014-10-01T17:25:00,0,28153749,193159
OK,131,16,619,131,2014-10-01T17:30:00,1,28154159,193159
OK,131,16,619,131,2014-10-01T17:35:00,1,28154608,193159
OK,131,16,619,131,2014-10-01T17:40:00,0,28155050,193159
OK,131,16,619,131,2014-10-01T17:45:00,0,28155498,193159
OK,131,16,619,131,2014-10-01T17:50:00,0,28155916,193159
OK,131,16,619,131,2014-10-01T17:55:00,0,28156365,193159
OK,131,16,619,131,2014-10-01T18:00:00,0,28156813,193159
OK,131,16,619,131,2014-10-01T18:05:00,0,28157252,193159
OK,131,16,619,131,2014-10-01T18:10:00,0,28157682,193159
OK,110,19,619,110,2014-10-01T18:15:00,1,28158130,193159
OK,110,19,619,110,2014-10-01T18:20:00,1,28158574,193159
OK,142,15,619,142,2014-10-01T18:25:00,1,28159020,193159
OK,142,15,619,142,2014-10-01T18:30:00,0,28159466,193159
OK,142,15,619,142,2014-10-01T18:35:00,0,28159801,193159
OK,142,15,619,142,2014-10-01T18:40:00,0,28160250,193159
OK,142,15,619,142,2014-10-01T18:45:00,0,28160699,193159
OK,142,15,619,142,2014-10-01T18:50:00,0,28161137,193159
OK,142,15,619,142,2014-10-01T18:55:00,0,28161586,193159
OK,142,15,619,142,2014-10-01T19:00:00,0,28162003,193159
OK,142,15,619,142,2014-10-01T19:05:00,0,28162452,193159
OK,142,15,619,142,2014-10-01T19:10:00,0,28162846,193159
OK,142,15,619,142,2014-10-01T19:15:00,0,28163285,193159
OK,142,15,619,142,2014-10-01T19:20:00,0,28163733,193159
OK,142,15,619,142,2014-10-01T19:25:00,0,28164182,193159
OK,142,15,619,142,2014-10-01T19:30:00,0,28164613,193159
OK,142,15,619,142,2014-10-01T19:35:00,0,28165062,193159
OK,142,15,619,142,2014-10-01T19:40:00,0,28165487,193159
OK,142,15,619,142,2014-10-01T19:45:00,0,28165935,193159
OK,142,15,619,142,2014-10-01T19:50:00,0,28166376,193159
OK,142,15,619,142,2014-10-01T19:55:00,0,28166738,193159
OK,142,15,619,142,2014-10-01T20:00:00,0,28167187,193159
OK,142,15,619,142,2014-10-01T20:05:00,0,28167616,193159
OK,142,15,619,142,2014-10-01T20:10:00,0,28168049,193159
OK,142,15,619,142,2014-10-01T20:15:00,0,28168498,193159
OK,142,15,619,142,2014-10-01T20:20:00,0,28168943,193159
OK,142,15,619,142,2014-10-01T20:25:00,0,28169392,193159
OK,142,15,619,142,2014-10-01T20:30:00,0,28169840,193159
OK,142,15,619,142,2014-10-01T20:35:00,0,28170266,193159
OK,142,15,619,142,2014-10-01T20:40:00,0,28170711,193159
OK,142,15,619,142,2014-10-01T20:45:00,0,28171159,193159
OK,142,15,619,142,2014-10-01T20:50:00,0,28171596,193159
OK,142,15,619,142,2014-10-01T20:55:00,0,28172042,193159
OK,142,15,619,142,2014-10-01T21:00:00,0,28172490,193159
OK,142,15,619,142,2014-10-01T21:05:00,0,28172936,193159
OK,88,24,619,88,2014-10-01T21:10:00,1,28173382,193159
OK,88,24,619,88,2014-10-01T21:15:00,1,28173831,193159
OK,88,24,619,88,2014-10-01T21:20:00,0,28174272,193159
OK,88,24,619,88,2014-10-01T21:25:00,0,28174721,193159
OK,88,24,619,88,2014-10-01T21:30:00,0,28175147,193159
OK,88,24,619,88,2014-10-01T21:35:00,0,28175543,193159
OK,88,24,619,88,2014-10-01T21:40:00,0,28175992,193159
OK,88,24,619,88,2014-10-01T21:45:00,0,28176441,193159
OK,88,24,619,88,2014-10-01T21:50:00,0,28176890,193159
OK,88,24,619,88,2014-10-01T21:55:00,0,28177246,193159
OK,88,24,619,88,2014-10-01T22:00:00,0,28177686,193159
OK,88,24,619,88,2014-10-01T22:05:00,0,28178132,193159
OK,88,24,619,88,2014-10-01T22:10:00,0,28178581,193159
OK,88,24,619,88,2014-10-01T22:15:00,0,28179028,193159
OK,88,24,619,88,2014-10-01T22:20:00,0,28179462,193159
OK,88,24,619,88,2014-10-01T22:25:00,0,28179905,193159
OK,88,24,619,88,2014-10-01T22:30:00,0,28180352,193159
OK,88,24,619,88,2014-10-01T22:35:00,0,28180750,193159
OK,88,24,619,88,2014-10-01T22:40:00,0,28181199,193159
OK,88,24,619,88,2014-10-01T22:45:00,0,28181623,193159
OK,88,24,619,88,2014-10-01T22:50:00,0,28182071,193159
OK,88,24,619,88,2014-10-01T22:55:00,0,28182518,193159
OK,88,24,619,88,2014-10-01T23:00:00,0,28182967,193159
OK,88,24,619,88,2014-10-01T23:05:00,0,28183384,193159
OK,88,24,619,88,2014-10-01T23:10:00,0,28183817,193159
OK,88,24,619,88,2014-10-01T23:15:00,0,28184262,193159
OK,88,24,619,88,2014-10-01T23:20:00,0,28184711,193159
OK,88,24,619,88,2014-10-01T23:25:00,0,28185146,193159
OK,88,24,619,88,2014-10-01T23:30:00,0,28185594,193159
OK,88,24,619,88,2014-10-01T23:35:00,0,28186025,193159
OK,88,24,619,88,2014-10-01T23:40:00,0,28186417,193159
OK,88,24,619,88,2014-10-01T23:45:00,0,28186866,193159
OK,88,24,619,88,2014-10-01T23:50:00,0,28187264,193159
OK,88,24,619,88,2014-10-01T23:55:00,0,28187706,193159
OK,88,24,619,88,2014-10-02T00:00:00,0,28188155,193159
OK,88,24,619,88,2014-10-02T00:05:00,0,28188596,193159
OK,88,24,619,88,2014-10-02T00:10:00,0,28189032,193159
OK,88,24,619,88,2014-10-02T00:15:00,0,28189481,193159
OK,88,24,619,88,2014-10-02T00:20:00,0,28189903,193159
OK,88,24,619,88,2014-10-02T00:25:00,0,28190351,193159
OK,88,24,619,88,2014-10-02T00:30:00,0,28190705,193159
OK,88,24,619,88,2014-10-02T00:35:00,0,28191154,193159
OK,88,24,619,88,2014-10-02T00:40:00,0,28191603,193159
OK,88,24,619,88,2014-10-02T00:45:00,0,28191909,193159
OK,88,24,619,88,2014-10-02T00:50:00,0,28192358,193159
OK,88,24,619,88,2014-10-02T00:55:00,0,28192791,193159
OK,88,24,619,88,2014-10-02T01:05:00,0,28193602,193159
OK,88,24,619,88,2014-10-02T01:10:00,0,28194051,193159
OK,88,24,619,88,2014-10-02T01:15:00,0,28194500,193159
OK,88,24,619,88,2014-10-02T01:20:00,0,28194948,193159
OK,88,24,619,88,2014-10-02T01:25:00,0,28195185,193159
OK,88,24,619,88,2014-10-02T01:30:00,0,28195634,193159
OK,88,24,619,88,2014-10-02T01:35:00,0,28196083,193159
OK,88,24,619,88,2014-10-02T01:40:00,0,28196367,193159
OK,88,24,619,88,2014-10-02T01:45:00,0,28196816,193159
OK,88,24,619,88,2014-10-02T01:50:00,0,28197239,193159
OK,88,24,619,88,2014-10-02T01:55:00,0,28197688,193159
OK,88,24,619,88,2014-10-02T02:00:00,0,28198136,193159
OK,88,24,619,88,2014-10-02T02:05:00,0,28198584,193159
OK,88,24,619,88,2014-10-02T02:10:00,0,28199033,193159
OK,88,24,619,88,2014-10-02T02:15:00,0,28199405,193159
OK,88,24,619,88,2014-10-02T02:20:00,0,28199847,193159
OK,88,24,619,88,2014-10-02T02:25:00,0,28200289,193159
OK,88,24,619,88,2014-10-02T02:30:00,0,28200732,193159
OK,88,24,619,88,2014-10-02T02:35:00,0,28201181,193159
OK,88,24,619,88,2014-10-02T02:45:00,0,28201612,193159
OK,88,24,619,88,2014-10-02T02:50:00,0,28202061,193159
OK,88,24,619,88,2014-10-02T02:55:00,0,28202510,193159
OK,88,24,619,88,2014-10-02T03:00:00,0,28202952,193159
OK,88,24,619,88,2014-10-02T03:05:00,0,28203400,193159
OK,88,24,619,88,2014-10-02T03:15:00,0,28203835,193159
OK,88,24,619,88,2014-10-02T03:30:00,0,28204284,193159
OK,88,24,619,88,2014-10-02T03:35:00,0,28204733,193159
OK,88,24,619,88,2014-10-02T03:40:00,0,28205182,193159
OK,111,19,619,111,2014-10-02T03:45:00,2,28205610,193159
OK,111,19,619,111,2014-10-02T03:55:00,0,28206440,193159
OK,111,19,619,111,2014-10-02T04:00:00,0,28206889,193159
OK,111,19,619,111,2014-10-02T04:05:00,0,28207338,193159
OK,111,19,619,111,2014-10-02T04:10:00,0,28207757,193159
OK,111,19,619,111,2014-10-02T04:15:00,0,28208206,193159
OK,111,19,619,111,2014-10-02T04:20:00,0,28208633,193159
OK,111,19,619,111,2014-10-02T04:25:00,0,28209082,193159
OK,111,19,619,111,2014-10-02T04:30:00,0,28209520,193159
OK,111,19,619,111,2014-10-02T04:35:00,0,28209969,193159
OK,111,19,619,111,2014-10-02T04:40:00,0,28210392,193159
OK,111,19,619,111,2014-10-02T04:45:00,0,28210841,193159
OK,111,19,619,111,2014-10-02T04:50:00,0,28211266,193159
OK,102,21,619,102,2014-10-02T04:55:00,0,28211710,193159
OK,102,21,619,102,2014-10-02T05:00:00,0,28212088,193159
OK,102,21,619,102,2014-10-02T05:05:00,0,28212537,193159
OK,102,21,619,102,2014-10-02T05:10:00,0,28212966,193159
OK,141,15,619,141,2014-10-02T05:15:00,1,28213415,193159
OK,141,15,619,141,2014-10-02T05:20:00,0,28213853,193159
OK,141,15,619,141,2014-10-02T05:25:00,0,28214302,193159
OK,141,15,619,141,2014-10-02T05:30:00,0,28214715,193159
OK,141,15,619,141,2014-10-02T05:35:00,0,28215164,193159
OK,104,21,619,104,2014-10-02T05:40:00,1,28215580,193159
OK,104,21,619,104,2014-10-02T05:45:00,1,28216029,193159
OK,104,21,619,104,2014-10-02T05:50:00,0,28216368,193159
OK,97,22,619,97,2014-10-02T05:55:00,1,28216808,193159
OK,97,22,619,97,2014-10-02T06:00:00,0,28217255,193159
OK,101,21,619,101,2014-10-02T06:05:00,1,28217704,193159
OK,101,21,619,101,2014-10-02T06:10:00,1,28218143,193159
OK,82,26,619,82,2014-10-02T06:15:00,2,28218592,193159
OK,83,26,619,83,2014-10-02T06:20:00,3,28219012,193159
OK,130,16,619,130,2014-10-02T06:25:00,2,28219461,193159
OK,104,21,619,104,2014-10-02T06:30:00,2,28219834,193159
OK,86,25,619,86,2014-10-02T06:35:00,2,28220283,193159
OK,86,25,619,86,2014-10-02T06:40:00,2,28220717,193159
OK,86,25,619,86,2014-10-02T06:45:00,0,28221166,193159
OK,140,15,619,140,2014-10-02T07:00:00,1,28221833,193159
OK,153,14,619,153,2014-10-02T07:05:00,1,28221979,193159
OK,153,14,619,153,2014-10-02T07:10:00,1,28222427,193159
OK,153,14,619,153,2014-10-02T07:15:00,0,28222876,193159
OK,153,14,619,153,2014-10-02T07:20:00,0,28223307,193159
OK,153,14,619,153,2014-10-02T07:25:00,0,28223742,193159
OK,153,14,619,153,2014-10-02T07:30:00,0,28224190,193159
OK,153,14,619,153,2014-10-02T07:35:00,0,28224545,193159
OK,153,14,619,153,2014-10-02T07:40:00,0,28224994,193159
OK,153,14,619,153,2014-10-02T07:50:00,0,28225765,193159
OK,153,14,619,153,2014-10-02T07:55:00,0,28226214,193159
OK,153,14,619,153,2014-10-02T08:00:00,0,28226655,193159
OK,153,14,619,153,2014-10-02T08:05:00,0,28227104,193159
OK,153,14,619,153,2014-10-02T08:10:00,0,28227519,193159
OK,85,25,619,85,2014-10-02T08:15:00,0,28227968,193159
OK,85,25,619,85,2014-10-02T08:20:00,0,28228327,193159
OK,105,20,619,105,2014-10-02T08:25:00,2,28228776,193159
OK,113,19,619,113,2014-10-02T08:30:00,0,28229186,193159
OK,104,21,619,104,2014-10-02T08:35:00,1,28229635,193159
OK,104,21,619,104,2014-10-02T08:40:00,0,28229985,193159
OK,104,21,619,104,2014-10-02T08:45:00,0,28230434,193159
OK,126,17,619,126,2014-10-02T08:50:00,1,28230800,193159
OK,126,17,619,126,2014-10-02T08:55:00,0,28231248,193159
OK,126,17,619,126,2014-10-02T09:00:00,0,28231672,193159
OK,126,17,619,126,2014-10-02T09:05:00,0,28232121,193159
OK,126,17,619,126,2014-10-02T09:15:00,0,28232463,193159
OK,126,17,619,126,2014-10-02T09:20:00,0,28232912,193159
OK,105,20,619,105,2014-10-02T09:25:00,1,28233361,193159
OK,105,20,619,105,2014-10-02T09:30:00,1,28233785,193159
OK,105,20,619,105,2014-10-02T09:35:00,0,28234234,193159
OK,105,20,619,105,2014-10-02T09:40:00,0,28234567,193159
OK,105,20,619,105,2014-10-02T09:45:00,0,28235016,193159
OK,105,20,619,105,2014-10-02T09:50:00,0,28235443,193159
OK,115,19,619,115,2014-10-02T09:55:00,2,28235892,193159
OK,152,14,619,152,2014-10-02T10:00:00,1,28236335,193159
OK,152,14,619,152,2014-10-02T10:05:00,0,28236782,193159
OK,84,26,619,84,2014-10-02T10:10:00,1,28237185,193159
OK,84,26,619,84,2014-10-02T10:15:00,1,28237632,193159
OK,90,24,619,90,2014-10-02T10:20:00,2,28238081,193159
OK,131,16,619,131,2014-10-02T10:25:00,1,28238528,193159
OK,131,16,619,131,2014-10-02T10:30:00,0,28238969,193159
OK,131,16,619,131,2014-10-02T10:35:00,0,28239418,193159
OK,92,23,619,92,2014-10-02T10:40:00,1,28239848,193159
OK,84,26,619,84,2014-10-02T10:45:00,1,28240297,193159
OK,84,26,619,84,2014-10-02T10:50:00,1,28240741,193159
OK,84,26,619,84,2014-10-02T10:55:00,0,28241190,193159
OK,84,26,619,84,2014-10-02T11:00:00,0,28241622,193159
OK,84,26,619,84,2014-10-02T11:05:00,0,28242070,193159
OK,53,41,619,53,2014-10-02T11:10:00,1,28242466,193159
OK,53,41,619,53,2014-10-02T11:15:00,1,28242915,193159
OK,98,22,619,98,2014-10-02T11:20:00,2,28243364,193159
OK,60,36,619,60,2014-10-02T11:25:00,0,28243689,193159
OK,60,36,619,60,2014-10-02T11:30:00,0,28244127,193159
OK,69,31,619,69,2014-10-02T11:35:00,0,28244556,193159
OK,69,31,619,69,2014-10-02T11:40:00,0,28245005,193159
OK,69,31,619,69,2014-10-02T11:45:00,0,28245454,193159
OK,69,31,619,69,2014-10-02T11:50:00,0,28245860,193159
OK,69,31,619,69,2014-10-02T11:55:00,0,28246309,193159
OK,69,31,619,69,2014-10-02T12:00:00,0,28246746,193159
OK,69,31,619,69,2014-10-02T12:05:00,0,28247195,193159
OK,69,31,619,69,2014-10-02T12:10:00,0,28247641,193159
OK,104,21,619,104,2014-10-02T12:15:00,1,28248071,193159
OK,104,21,619,104,2014-10-02T12:20:00,0,28248520,193159
OK,63,34,619,63,2014-10-02T12:25:00,0,28248967,193159
OK,63,34,619,63,2014-10-02T12:30:00,0,28249395,193159
OK,63,34,619,63,2014-10-02T12:35:00,0,28249839,193159
OK,57,38,619,57,2014-10-02T12:45:00,1,28250656,193159
OK,57,38,619,57,2014-10-02T12:50:00,0,28251436,193159
OK,57,38,619,57,2014-10-02T13:00:00,0,28251476,193159
OK,57,38,619,57,2014-10-02T13:20:00,0,28251516,193159
OK,57,38,619,57,2014-10-02T13:30:00,0,28251981,193159
OK,57,38,619,57,2014-10-02T13:35:00,0,28252118,193159
OK,57,38,619,57,2014-10-02T13:40:00,0,28252565,193159
OK,116,18,619,116,2014-10-02T13:45:00,1,28253007,193159
OK,116,18,619,116,2014-10-02T13:50:00,1,28253424,193159
OK,99,22,619,99,2014-10-02T13:55:00,1,28253873,193159
OK,128,17,619,128,2014-10-02T14:10:00,1,28254604,193159
OK,128,17,619,128,2014-10-02T14:15:00,0,28254727,193159
OK,128,17,619,128,2014-10-02T14:20:00,0,28255176,193159
OK,128,17,619,128,2014-10-02T14:25:00,0,28255625,193159
OK,128,17,619,128,2014-10-02T14:30:00,0,28256053,193159
OK,128,17,619,128,2014-10-02T14:35:00,0,28256502,193159
OK,128,17,619,128,2014-10-02T14:40:00,0,28256930,193159
OK,128,17,619,128,2014-10-02T14:45:00,0,28257379,193159
OK,63,34,619,63,2014-10-02T14:50:00,2,28257820,193159